This demonstration page uses our WeatherBlox Daily Observations layout. Learn more.

Left ArrowRight Arrow

Hourly Observations for April 22, 2016

Temp ( °F °C ) Dew Point ( °F °C ) Humidity (%) Winds ( mph kmh ) Pressure ( in mb ) Visibility ( mi km ) Precip ( " mm )
12:53 am 00:53 Clear 62 16.7 47 8.3 58 58 SSE 21 33 29.70 1006 10 16 0.00 0.00
1:53 am 01:53 Mostly Cloudy 62 16.7 48 8.9 60 60 SSE 23 37 29.69 1005 10 16 0.00 0.00
2:53 am 02:53 Cloudy 61 16.1 49 9.4 65 65 SSE 22 35 29.68 1005 10 16 0.00 0.03
3:53 am 03:53 Cloudy with Rain 58 14.4 52 11.1 81 81 S 16 26 29.69 1005 4 6 0.06 1.52
4:13 am 04:13 Cloudy with Heavy Rain 57 13.9 53 11.7 87 87 SSW 14 22 29.71 1006 3 4 0.13 3.30
4:22 am 04:22 Cloudy with Rain 57 14 54 12 88 88 SSW 13 20 29.71 1006 3 5 0.00 0.00
4:31 am 04:31 Cloudy with Heavy Rain 56 13.3 53 11.7 90 90 SSW 16 26 29.71 1006 3 4 0.23 5.84
4:34 am 04:34 Cloudy with Heavy Rain 55 13 52 11 88 88 S 17 28 29.71 1006 2 3 0.00 0.00
4:41 am 04:41 Cloudy with Heavy Rain 54 12.2 50 10 87 87 SSW 13 20 29.71 1006 2 2 0.47 11.94
4:49 am 04:49 Cloudy with Heavy Rain 54 12 50 10 88 88 SSW 8 13 29.71 1006 2 3 0.63 16.00
4:53 am 04:53 Cloudy with Light Rain 54 12.2 51 10.6 90 90 SSW 12 19 29.69 1005 3 5 0.63 16.00
5:25 am 05:25 Cloudy 54 12.2 50 10 87 87 S 12 19 29.71 1006 10 16 0.02 0.51
5:37 am 05:37 Cloudy 54 12.2 50 10 87 87 SSW 7 11 29.71 1006 10 16 0.02 0.51
5:53 am 05:53 Cloudy with Light Rain 54 12.2 50 10 87 87 S 7 11 29.70 1006 9 14 0.02 0.51
6:37 am 06:37 Cloudy with Light Rain 54 12.2 51 10.6 90 90 Calm 29.71 1006 10 16 0.01 0.25
6:53 am 06:53 Cloudy 54 12.2 51 10.6 90 90 NNE 3 6 29.69 1005 10 16 0.02 0.51
7:33 am 07:33 Cloudy 56 13.3 52 11.1 87 87 Calm 29.71 1006 10 16 0.00 0.00
7:44 am 07:44 Cloudy 55 13 52 11 88 88 Calm 29.71 1006 10 16 0.00 0.00
7:47 am 07:47 Cloudy 55 13 52 11 88 88 Calm 29.71 1006 10 16 0.00 0.00
7:53 am 07:53 Cloudy 56 13.3 52 11.1 87 87 Calm 29.70 1006 10 16 0.00 0.00
8:35 am 08:35 Cloudy 55 12.8 51 10.6 87 87 SSE 18 30 29.71 1006 10 16 0.00 0.00
8:53 am 08:53 Mostly Cloudy 55 12.8 51 10.6 87 87 SSE 13 20 29.71 1006 10 16 0.00 0.00
9:00 am 09:00 Mostly Cloudy 55 13 52 11 88 88 S 14 22 29.71 1006 10 16 0.00 0.00
9:53 am 09:53 Cloudy 57 13.9 51 10.6 81 81 SSE 12 19 29.72 1006 10 16 0.00 0.00
10:53 am 10:53 Mostly Cloudy 60 15.6 50 10 70 70 SSE 20 31 29.72 1006 10 16 0.00 0.00
11:01 am 11:01 Mostly Cloudy with Nearby Thunderstorms 62 16.7 51 10.6 67 67 S 20 31 29.74 1007 10 16 0.00 0.00
11:10 am 11:10 Mostly Cloudy with Nearby Thunderstorms 62 16.7 51 10.6 67 67 S 17 28 29.74 1007 10 16 0.00 0.00
11:21 am 11:21 Mostly Cloudy with Nearby Thunderstorms 60 15.6 50 10 70 70 SW 9 15 29.74 1007 10 16 0.00 0.00
11:28 am 11:28 Mostly Cloudy with Nearby Thunderstorms 55 13 46 8 72 72 WNW 6 9 29.74 1007 10 16 0.00 0.00
11:39 am 11:39 Cloudy with Nearby Thunderstorms 53 11.7 47 8.3 80 80 NW 12 19 29.77 1008 10 16 0.00 0.00
11:53 am 11:53 Cloudy with Thunderstorms 52 11.1 48 8.9 86 86 WNW 6 9 29.72 1007 10 16 0.00 0.03
12:03 pm 12:03 Cloudy with Strong Thunderstorms 52 11 48 9 88 88 NW 9 15 29.77 1008 10 16 0.00 0.00
12:15 pm 12:15 Cloudy with Strong Thunderstorms 51 10.6 48 8.9 89 89 NW 7 11 29.77 1008 10 16 0.35 8.89
12:34 pm 12:34 Cloudy with Thunderstorms 52 11 48 9 88 88 VRB 5 7 29.77 1008 10 16 0.00 0.00
12:53 pm 12:53 Cloudy with Strong Thunderstorms 51 10.6 48 8.9 89 89 W 7 11 29.76 1008 10 16 0.74 18.80
1:53 pm 13:53 Cloudy with Strong Thunderstorms 51 10.6 48 8.9 89 89 NW 6 9 29.78 1008 5 8 0.80 20.32
1:55 pm 13:55 Cloudy with Thunderstorms 51 10.6 48 8.9 89 89 WNW 7 11 29.83 1010 2 3 0.01 0.25
2:00 pm 14:00 Cloudy with Rain 52 11 48 9 88 88 VRB 3 6 29.83 1010 2 3 0.00 0.00
2:06 pm 14:06 Cloudy with Heavy Rain 52 11 48 9 88 88 N 3 6 29.83 1010 1 2 0.00 0.00
2:21 pm 14:21 Cloudy with Rain 52 11.1 46 7.8 80 80 Calm 29.83 1010 2 2 0.21 5.33
2:28 pm 14:28 Cloudy with Heavy Rain 52 11 48 9 88 88 NNE 7 11 29.83 1010 3 5 0.00 0.00
2:53 pm 14:53 Cloudy 53 11.7 49 9.4 86 86 NE 9 15 29.79 1009 10 16 0.25 6.35
3:01 pm 15:01 Cloudy with Light Rain 53 11.7 49 9.4 86 86 NE 8 13 29.83 1010 10 16 0.00 0.03
3:21 pm 15:21 Cloudy 53 11.7 49 9.4 86 86 NNE 9 15 29.85 1011 10 16 0.00 0.03
3:53 pm 15:53 Cloudy 53 11.7 49 9.4 86 86 NNE 7 11 29.83 1010 10 16 0.00 0.03
4:00 pm 16:00 Cloudy with Rain 54 12 48 9 82 82 NNE 8 13 29.85 1011 6 10 0.00 0.00
4:09 pm 16:09 Cloudy with Rain 52 11.1 48 8.9 86 86 NE 8 13 29.85 1011 2 3 0.03 0.76
4:16 pm 16:16 Cloudy with Heavy Rain 52 11.1 48 8.9 86 86 ENE 9 15 29.85 1011 1 2 0.07 1.78
4:31 pm 16:31 Cloudy with Rain 51 10.6 47 8.3 86 86 NNE 9 15 29.85 1011 2 3 0.22 5.59
4:40 pm 16:40 Cloudy with Light Rain 52 11 48 9 88 88 NE 10 17 29.88 1012 7 11 0.00 0.00
4:53 pm 16:53 Cloudy with Light Rain 52 11.1 48 8.9 86 86 ENE 13 20 29.84 1010 6 10 0.24 6.10
5:53 pm 17:53 Mostly Cloudy 52 11.1 49 9.4 89 89 NNW 5 7 29.86 1011 10 16 0.05 1.27
6:53 pm 18:53 Mostly Cloudy 53 11.7 49 9.4 86 86 NNW 5 7 29.88 1012 10 16 0.00 0.00
7:53 pm 19:53 Cloudy 53 11.7 49 9.4 86 86 Calm 29.91 1013 10 16 0.00 0.00
8:53 pm 20:53 Cloudy 52 11.1 49 9.4 89 89 SW 3 6 29.94 1014 10 16 0.00 0.03
9:53 pm 21:53 Cloudy 52 11.1 48 8.9 86 86 Calm 29.99 1016 10 16 0.00 0.00
10:53 pm 22:53 Clear 51 10.6 47 8.3 86 86 Calm 30.01 1016 9 14 0.00 0.00
11:46 pm 23:46 Mostly Clear with Mist and Fog 48 9 46 8 94 94 Calm 30.03 1017 1 2 0.00 0.00
11:48 pm 23:48 Mostly Cloudy with Mist and Fog 48 9 46 8 94 94 Calm 30.03 1017 1 1 0.00 0.00
11:53 pm 23:53 Mostly Cloudy with Mist and Fog 49 9.4 46 7.8 90 90 Calm 30.04 1017 1 1 0.00 0.00
11:58 pm 23:58 Partly Cloudy with Mist and Fog 48 9 46 8 94 94 Calm 30.03 1017 1 2 0.00 0.00

Powered by AerisWeather